• In Belarus
  • List of Countries
  • For 7 days
  • Water Temperature
  • Weather Map
  • Weather Widgets
  • user-avatar
    Login

    Hourly Weather Kranevo

    Today, 28 January, Tuesday

    Time Temperature Precipitation Wind Pressure Humidity
    00:00 +7°C° 1.4 mm 4 mps 754 mmHg 89%
    01:00 +7°C° 1.4 mm 5 mps 754 mmHg 87%
    02:00 +5°C° 0 mm 6 mps 754 mmHg 79%
    03:00 +5°C° 0.4 mm 6 mps 754 mmHg 80%
    04:00 +5°C° 0.4 mm 6 mps 754 mmHg 81%
    05:00 +4°C° 0.4 mm 6 mps 754 mmHg 83%
    06:00 +4°C° 0.1 mm 6 mps 754 mmHg 83%
    07:00 +4°C° 0.1 mm 7 mps 754 mmHg 84%
    08:00 +4°C° 0 mm 6 mps 754 mmHg 84%
    09:00 +4°C° 0 mm 6 mps 754 mmHg 82%
    10:00 +6°C° 0 mm 5 mps 754 mmHg 80%
    11:00 +6°C° 0 mm 4 mps 754 mmHg 78%
    12:00 +7°C° 0 mm 4 mps 754 mmHg 75%
    13:00 +8°C° 0 mm 4 mps 754 mmHg 72%
    14:00 +10°C° 0 mm 3 mps 754 mmHg 68%
    15:00 +10°C° 0 mm 3 mps 753 mmHg 70%
    16:00 +9°C° 0 mm 3 mps 753 mmHg 73%
    17:00 +9°C° 0 mm 2 mps 753 mmHg 75%
    18:00 +8°C° 0 mm 2 mps 753 mmHg 77%
    19:00 +8°C° 0 mm 3 mps 753 mmHg 79%
    20:00 +7°C° 0 mm 3 mps 754 mmHg 81%
    21:00 +7°C° 0 mm 3 mps 754 mmHg 81%
    22:00 +7°C° 0 mm 3 mps 753 mmHg 81%
    23:00 +5°C° 0 mm 3 mps 753 mmHg 81%

    Tomorrow, 29 January, Wednesday

    Time Temperature Precipitation Wind Pressure Humidity
    00:00 +5°C° 0 mm 3 mps 753 mmHg 80%
    01:00 +5°C° 0 mm 3 mps 752 mmHg 79%
    02:00 +5°C° 0 mm 3 mps 752 mmHg 77%
    03:00 +5°C° 0 mm 4 mps 752 mmHg 80%
    04:00 +5°C° 0 mm 4 mps 751 mmHg 82%
    05:00 +5°C° 0 mm 4 mps 751 mmHg 84%
    06:00 +5°C° 0 mm 4 mps 750 mmHg 84%
    07:00 +5°C° 0 mm 4 mps 750 mmHg 84%
    08:00 +5°C° 0 mm 5 mps 750 mmHg 84%
    09:00 +7°C° 0 mm 5 mps 750 mmHg 80%
    10:00 +8°C° 0 mm 4 mps 750 mmHg 75%
    11:00 +10°C° 0 mm 4 mps 749 mmHg 71%
    12:00 +9°C° 0 mm 6 mps 749 mmHg 71%
    13:00 +9°C° 0 mm 7 mps 749 mmHg 71%
    14:00 +9°C° 0 mm 8 mps 750 mmHg 71%
    15:00 +8°C° 0.2 mm 7 mps 750 mmHg 72%
    16:00 +8°C° 0.2 mm 7 mps 750 mmHg 72%
    17:00 +7°C° 0.2 mm 6 mps 750 mmHg 72%
    18:00 +5°C° 0 mm 6 mps 751 mmHg 72%
    19:00 +6°C° 0 mm 5 mps 752 mmHg 73%
    20:00 +5°C° 0 mm 5 mps 752 mmHg 73%
    21:00 +5°C° 0 mm 5 mps 753 mmHg 74%
    22:00 +3°C° 0 mm 5 mps 753 mmHg 74%
    23:00 +3°C° 0 mm 5 mps 753 mmHg 74%

    Day after tomorrow, 30 January, Thursday

    Time Temperature Precipitation Wind Pressure Humidity
    00:00 +4°C° 0 mm 4 mps 754 mmHg 73%
    01:00 +4°C° 0 mm 4 mps 754 mmHg 72%
    02:00 +4°C° 0 mm 3 mps 754 mmHg 71%
    03:00 +4°C° 0 mm 3 mps 754 mmHg 71%
    04:00 +3°C° 0 mm 3 mps 754 mmHg 70%
    05:00 +3°C° 0 mm 3 mps 754 mmHg 70%
    06:00 +3°C° 0 mm 4 mps 754 mmHg 71%
    07:00 +3°C° 0 mm 4 mps 755 mmHg 72%
    08:00 +2°C° 0 mm 5 mps 755 mmHg 73%
    09:00 +3°C° 0 mm 5 mps 756 mmHg 68%
    10:00 +4°C° 0 mm 6 mps 756 mmHg 63%
    11:00 +4°C° 0 mm 6 mps 756 mmHg 57%
    12:00 +5°C° 0 mm 6 mps 756 mmHg 52%
    13:00 +7°C° 0 mm 6 mps 756 mmHg 47%
    14:00 +8°C° 0 mm 6 mps 756 mmHg 42%
    15:00 +7°C° 0 mm 5 mps 756 mmHg 45%
    16:00 +6°C° 0 mm 4 mps 756 mmHg 47%
    17:00 +6°C° 0 mm 4 mps 756 mmHg 50%
    18:00 +5°C° 0 mm 4 mps 756 mmHg 53%
    19:00 +4°C° 0 mm 4 mps 757 mmHg 56%
    20:00 +3°C° 0 mm 5 mps 757 mmHg 59%
    21:00 +2°C° 0 mm 5 mps 758 mmHg 62%
    22:00 +2°C° 0 mm 5 mps 758 mmHg 65%
    23:00 +2°C° 0 mm 6 mps 758 mmHg 69%

    31 January, Friday

    Time Temperature Precipitation Wind Pressure Humidity
    00:00 +1°C° 0 mm 6 mps 758 mmHg 70%
    01:00 +1°C° 0 mm 5 mps 758 mmHg 71%
    02:00 0°C° 0 mm 5 mps 759 mmHg 73%
    03:00 0°C° 0 mm 5 mps 758 mmHg 72%
    04:00 0°C° 0 mm 5 mps 758 mmHg 72%
    05:00 0°C° 0 mm 5 mps 758 mmHg 72%
    06:00 0°C° 0 mm 4 mps 758 mmHg 70%
    07:00 0°C° 0 mm 4 mps 757 mmHg 68%
    08:00 0°C° 0 mm 4 mps 757 mmHg 67%
    09:00 +3°C° 0 mm 4 mps 757 mmHg 59%
    10:00 +5°C° 0 mm 4 mps 757 mmHg 51%
    11:00 +7°C° 0 mm 5 mps 756 mmHg 44%
    12:00 +8°C° 0 mm 5 mps 756 mmHg 42%
    13:00 +8°C° 0 mm 5 mps 755 mmHg 40%
    14:00 +9°C° 0 mm 6 mps 754 mmHg 39%
    15:00 +9°C° 0 mm 5 mps 754 mmHg 42%
    16:00 +8°C° 0 mm 5 mps 753 mmHg 46%
    17:00 +7°C° 0 mm 4 mps 753 mmHg 49%
    18:00 +7°C° 0 mm 5 mps 753 mmHg 50%
    19:00 +7°C° 0 mm 5 mps 752 mmHg 50%
    20:00 +7°C° 0 mm 5 mps 752 mmHg 51%
    21:00 +7°C° 0 mm 5 mps 752 mmHg 58%
    22:00 +7°C° 0 mm 6 mps 752 mmHg 65%
    23:00 +7°C° 0 mm 6 mps 752 mmHg 73%

    1 February, Saturday

    Time Temperature Precipitation Wind Pressure Humidity
    00:00 +7°C° 0 mm 6 mps 753 mmHg 75%
    01:00 +5°C° 0 mm 6 mps 753 mmHg 78%
    02:00 +5°C° 0 mm 6 mps 753 mmHg 81%
    03:00 +5°C° 0 mm 6 mps 754 mmHg 83%
    04:00 +6°C° 0 mm 5 mps 754 mmHg 86%
    05:00 +5°C° 0 mm 5 mps 754 mmHg 88%
    06:00 +5°C° 0 mm 5 mps 755 mmHg 88%
    07:00 +6°C° 0 mm 5 mps 755 mmHg 89%
    08:00 +6°C° 0 mm 4 mps 756 mmHg 89%
    09:00 +7°C° 0 mm 4 mps 756 mmHg 83%
    10:00 +10°C° 0 mm 4 mps 756 mmHg 77%
    11:00 +11°C° 0 mm 4 mps 757 mmHg 71%
    12:00 +12°C° 0 mm 4 mps 757 mmHg 66%
    13:00 +13°C° 0 mm 4 mps 756 mmHg 62%
    14:00 +14°C° 0 mm 4 mps 756 mmHg 58%
    15:00 +13°C° 0 mm 3 mps 756 mmHg 60%
    16:00 +12°C° 0 mm 3 mps 756 mmHg 63%
    17:00 +13°C° 0 mm 2 mps 756 mmHg 65%
    18:00 +12°C° 0 mm 2 mps 756 mmHg 68%
    19:00 +10°C° 0 mm 3 mps 757 mmHg 70%
    20:00 +10°C° 0 mm 3 mps 757 mmHg 72%
    21:00 +9°C° 0 mm 3 mps 757 mmHg 74%
    22:00 +9°C° 0 mm 3 mps 757 mmHg 75%
    23:00 +9°C° 0 mm 3 mps 757 mmHg 76%

    2 February, Sunday

    Time Temperature Precipitation Wind Pressure Humidity
    00:00 +9°C° 0 mm 3 mps 756 mmHg 77%
    01:00 +9°C° 0 mm 3 mps 756 mmHg 78%
    02:00 +9°C° 0 mm 3 mps 756 mmHg 78%
    03:00 +9°C° 0 mm 3 mps 756 mmHg 78%
    04:00 +9°C° 0 mm 3 mps 755 mmHg 78%
    05:00 +8°C° 0 mm 3 mps 755 mmHg 78%
    06:00 +9°C° 0 mm 3 mps 755 mmHg 77%
    07:00 +9°C° 0 mm 3 mps 755 mmHg 76%
    08:00 +9°C° 0 mm 3 mps 755 mmHg 75%
    09:00 +10°C° 0 mm 4 mps 755 mmHg 69%
    10:00 +12°C° 0 mm 5 mps 756 mmHg 63%
    11:00 +13°C° 0 mm 6 mps 756 mmHg 57%
    12:00 +13°C° 0 mm 6 mps 756 mmHg 58%
    13:00 +13°C° 0 mm 6 mps 756 mmHg 59%
    14:00 +12°C° 0 mm 7 mps 755 mmHg 60%
    15:00 +12°C° 0 mm 7 mps 756 mmHg 59%
    16:00 +11°C° 0 mm 7 mps 756 mmHg 59%
    17:00 +11°C° 0 mm 7 mps 756 mmHg 58%
    18:00 +10°C° 0 mm 7 mps 757 mmHg 59%
    19:00 +9°C° 0 mm 7 mps 757 mmHg 59%
    20:00 +6°C° 0 mm 7 mps 758 mmHg 60%
    21:00 +7°C° 0 mm 6 mps 758 mmHg 62%
    22:00 +5°C° 0 mm 6 mps 758 mmHg 64%
    23:00 +5°C° 0 mm 6 mps 759 mmHg 65%
    Show more